Preview of NWS' New Version of Forecast
This preview is not operational and should not be used for support decisions.

Regional Weather Roundup (RWR)

Issued by National Weather Service (NWS)

                            
000
ASCA42 TJSJ 221610
RWRPR 
PUERTO RICO/U.S. VIRGIN ISLANDS HOURLY WEATHER ROUNDUP
NATIONAL WEATHER SERVICE SAN JUAN PR
1200 PM AST MON JUL 22 2019

PRZ001>002-007>008-010-221700-
PUERTO RICO
  
CITY           SKY/WX    TMP DP  RH WIND       PRES   REMARKS
SAN JUAN LMM   MOSUNNY   90  73  58 NE20      30.03S HX  98           
AGUADILLA      MOSUNNY   88  75  66 E14       30.05S HX  97           
CEIBA          MOSUNNY   90  73  58 E12       30.05F HX  98           
$$

VIZ001>002-221700-
U.S. VIRGIN ISLANDS
  
CITY           SKY/WX    TMP DP  RH WIND       PRES   REMARKS
CHARLOTTE AMA  MOSUNNY   88  73  62 SE15      30.03S HX  96           
CHRISTIANSTED  MOSUNNY   88  72  58 SE15G22   30.05S HX  94           
$$

HOURLY WEATHER ROUNDUP FOR THE NEWS MEDIA
  
CITY           SKY/WX    TMP DP  RH WIND       PRES   REMARKS
ORLANDO        FAIR      89  70  53 SE5       30.06F HX  94           
NEW YORK       PTSUNNY   86  71  60 SE10      29.83F HX  91           
NEWARK         PTSUNNY   87  73  62 SE8       29.81F HX  94           
CHICAGO        PTSUNNY   71  53  52 N20       30.07S                  
HARTFORD       FAIR      84  66  54 N5        29.85S                  
BOSTON         PTSUNNY   81  65  58 E14       29.87S                  
DALLAS         MOSUNNY   90  72  55 W9        30.01F HX  97           
PHILADELPHIA   FAIR      89  71  55 S8        29.81F HX  95           
LOS ANGELES    CLOUDY    67  62  84 SW6       29.98R                  
WASHINGTON DC  FAIR      90  70  51 S10       29.83F HX  95